Погода в Петропавловской

Россия / Краснодарский край     45°04′59″N   40°26′08″E
темп.,
°C
ветер,
м/с
пор.,
м/с
влажн.,
%
обл.,
%
осадки,
мм/ч
давл.,
гПа
погр.,
м
22 апреля, чт
чт2200:00+9ююв2390100 0.0 102140
03:00+9ююв1189100 0.0 102111
06:00+8юз1193100 0.0 102231
09:00+13всв127822 0.0 1022538
12:00+16св2368100 0.1 10211191
15:00+16с1170100 1.9 1021772
18:00+13зсз368780 4.7 1022184
21:00+10зсз229159 5.6 102418
23 апреля, пт
пт2300:00+8з34954 0.0 102459
03:00+6зюз33950 0.0 102462
06:00+6юз22950 0.0 102535
09:00+13юз22750 0.0 1024517
12:00+16з34542 0.0 10231380
15:00+17зсз335249 0.0 10221505
18:00+15ссв226695 0.0 102128
21:00+12в2265100 0.0 102017
24 апреля, сб
сб2400:00+11ю2270100 0.0 101911
03:00+10з2378100 0.0 102051
06:00+9юз228485 0.0 102035
09:00+14зюз366627 0.0 1019481
12:00+17з685724 0.1 10191410
15:00+18з7115310 0.1 10181739
18:00+15зсз6106997 0.0 1018521
21:00+10всв0190100 0.0 102110
25 апреля, вс
вс2500:00+10зсз2387100 0.0 1022138
03:00+10сз2477100 0.0 1022157
06:00+9св2475100 0.0 1021156
09:00+10всв4569100 0.0 1021433
12:00+9св4684100 1.0 1020541
15:00+8св4896100 6.3 1019443
18:00+8всв4896100 5.9 1019447
21:00+8всв41096100 11.3 1018419
26 апреля, пн
пн2600:00+8всв4996100 2.3 1018359
03:00+8в2696100 3.2 1017365
06:00+8всв2597100 0.4 1016287
09:00+8в0196100 1.6 1017125
12:00+9з0093100 0.6 1017232
15:00+9з1195100 2.0 1017143
18:00+10ю1194100 0.4 1017132
21:00+9зсз1195100 0.5 101811